sat.trackr.live / text

‹ back to catalog

STARLINK-30119

NORAD 56823 · 2023-079A

PAYLOAD ACTIVE UNKNOWN

§ Identity

Operator
Country
US
Launch date
2023-06-04
Launch site
AFETR
Launch vehicle
Mass (kg)
RCS (m²)

Purposes: comms

External: N2YO · Heavens-Above · Gunter

§ Orbital elements

Epoch: 2026-09-20T22:06:11.388096Z

Period
94.27 min
Inclination
43.0013°
Eccentricity
0.0001484
Mean motion
15.27576210 rev/d
Perigee alt
482.0 km
Apogee alt
484.1 km
Semi-major
6,861.2 km
B*
3.0430e-5
RAAN
84.7207°
Arg perigee
265.2420°
Mean anomaly
94.8262°
Rev number
18,317

§ Raw data

STARLINK-301191 56823U 23079A   26263.92096514  .00000575  00000+0  30430-4 0  99902 56823  43.0013  84.7207 0001484 265.2420  94.8262 15.27576210183170

JSON: /api/v1/satellites/56823 · /tle

For live sub-satellite position, see the globe view (requires WebGL).

§ Visibility from observer

Set your observer location to see the next 7 days of passes ≥ 10°. The values pass through the URL so the page stays shareable.

No JS? Fill the form by hand. The geolocation button needs JavaScript.